DW5444 Weather Reports


time (UTC)temp
C
wind
direction
speed
KPH
gust
KPH
rain 1hr
cm
rain 24hr
cm
rain mn
cm
humidity
%
barometer
mb
20260503021601 20 78 6.4 9.7 0.00 0.00 0.00 47 1010.3
20260503020100 20 71 3.2 8.0 0.00 0.00 0.00 45 1010.4
20260503014623 21 43 6.4 9.7 0.00 0.00 0.00 44 1010.4
20260503013055 22 28 4.8 9.7 0.00 0.00 0.00 43 1010.4
20260503011611 22 43 6.4 14.5 0.00 0.00 0.00 44 1010.5
20260503010055 22 38 6.4 14.5 0.00 0.00 0.00 46 1010.6
20260503004559 22 59 11.3 17.7 0.00 0.00 0.00 45 1010.7
20260503003050 22 65 12.9 20.9 0.00 0.00 0.00 42 1010.8
20260503001554 22 58 12.9 24.1 0.00 0.00 0.00 41 1010.8
20260503000049 22 49 8.0 12.9 0.00 0.00 0.00 38 1010.8
20260502234547 22 334 9.7 16.1 0.00 0.00 0.00 38 1010.9
20260502233047 22 31 6.4 16.1 0.00 0.00 0.00 39 1011.0
20260502231544 22 59 8.0 17.7 0.00 0.00 0.00 39 1011.1
20260502230042 22 55 9.7 17.7 0.00 0.00 0.00 37 1011.2
20260502224541 22 51 9.7 16.1 0.00 0.00 0.00 36 1011.5
20260502223041 22 308 4.8 14.5 0.00 0.00 0.00 38 1011.6
20260502221536 21 307 8.0 14.5 0.00 0.00 0.00 39 1011.9
20260502220034 21 322 4.8 12.9 0.00 0.00 0.00 39 1012.0
20260502214533 21 322 4.8 12.9 0.00 0.00 0.00 37 1012.1
20260502213031 21 58 3.2 11.3 0.00 0.00 0.00 38 1012.1
20260502211540 21 312 6.4 11.3 0.00 0.00 0.00 38 1012.2
20260502210035 20 322 3.2 17.7 0.00 0.00 0.00 38 1012.3
20260502204527 21 339 4.8 16.1 0.00 0.00 0.00 40 1012.5
20260502203025 20 31 3.2 12.9 0.00 0.00 0.00 43 1012.6
20260502201523 20 45 4.8 9.7 0.00 0.00 0.00 43 1012.5
20260502200024 19 41 4.8 12.9 0.00 0.00 0.00 46 1012.6
20260502194520 18 31 4.8 14.5 0.00 0.00 0.00 46 1012.6
20260502193018 18 316 4.8 11.3 0.00 0.00 0.00 39 1012.9
20260502191517 19 51 4.8 12.9 0.00 0.00 0.00 44 1012.9
20260502190015 19 308 4.8 14.5 0.00 0.00 0.00 48 1012.8
20260502184511 18 30 1.6 11.3 0.00 0.00 0.00 54 1012.8
20260502183013 18 284 6.4 12.9 0.00 0.00 0.00 58 1012.9
20260502181511 17 290 6.4 11.3 0.00 0.00 0.00 59 1012.9
20260502163055 15 287 6.4 8.0 0.00 0.00 0.00 65 1012.7
20260502161551 15 279 4.8 8.0 0.00 0.00 0.00 66 1012.6
20260502151554 15 261 3.2 4.8 0.00 0.00 0.00 64 1012.4
20260502123025 10 73 6.4 8.0 0.00 0.00 0.00 65 1011.9
20260502121524 11 76 1.6 4.8 0.00 0.00 0.00 63 1011.9
20260502114523 11 88 0.0 3.2 0.00 0.00 0.00 62 1011.9
20260502113026 10 77 4.8 6.4 0.00 0.00 0.00 70 1011.8
20260502111521 9 76 4.8 6.4 0.00 0.00 0.00 71 1011.8
20260502110020 9 86 6.4 6.4 0.00 0.00 0.00 74 1011.8
20260502104522 9 85 4.8 6.4 0.00 0.00 0.00 72 1011.9
20260502103017 10 72 1.6 3.2 0.00 0.00 0.00 71 1012.1
20260502101530 10 92 1.6 3.2 0.00 0.00 0.00 68 1012.0
20260502091502 12 82 4.8 6.4 0.00 0.00 0.00 58 1011.7
20260502080107 12 67 3.2 6.4 0.00 0.00 0.00 59 1012.0
20260502070058 13 78 4.8 6.4 0.00 0.00 0.00 58 1012.2
20260502064550 14 47 1.6 4.8 0.00 0.00 0.00 55 1012.1
20260502063055 15 185 0.0 6.4 0.00 0.00 0.00 52 1012.0
20260502061647 15 46 3.2 6.4 0.00 0.00 0.00 51 1011.9
20260502060044 15 59 3.2 6.4 0.00 0.00 0.00 54 1011.9
20260502054544 15 48 4.8 8.0 0.00 0.00 0.00 54 1011.8
20260502053044 15 48 4.8 8.0 0.00 0.00 0.00 56 1011.8
20260502051601 15 47 1.6 6.4 0.00 0.00 0.00 57 1011.8
20260502050041 15 43 6.4 11.3 0.00 0.00 0.00 55 1011.8
20260502044540 15 50 6.4 11.3 0.00 0.00 0.00 54 1011.8
20260502043040 15 12 6.4 12.9 0.00 0.00 0.00 51 1011.9
20260502041541 16 52 8.0 16.1 0.00 0.00 0.00 49 1011.9
20260502040050 16 63 8.0 17.7 0.00 0.00 0.00 51 1011.9
20260502034538 16 43 4.8 9.7 0.00 0.00 0.00 53 1011.9
20260502033041 16 66 4.8 11.3 0.00 0.00 0.00 52 1011.9
20260502031539 17 47 8.0 12.9 0.00 0.00 0.00 51 1011.8
20260502030036 17 48 11.3 16.1 0.00 0.00 0.00 50 1011.7
20260502024538 18 79 11.3 16.1 0.00 0.00 0.00 49 1011.7
20260502023136 18 65 11.3 17.7 0.00 0.00 0.00 49 1011.7